Zurück zum Katalog

FENGYUN 1C DEB

AktivSSO
NORAD 30820·DEBRIS·🇨🇳 China

Gestartet May 10, 1999 von Taiyuan Satellite Launch Center

Loading…

Nächste Überflüge (nächste 24 Stunden)

TLE

AktuellSource: Space-Track

Epoche: Sep 14, 2026, 05:01 UTC

1 30820U 99025AVE 26257.20952388  .00002535  00000-0  11220-2 0  9990
2 30820  98.6761 354.1996 0052224 111.2864 279.0306 14.23311239  3387

Verfolge FENGYUN 1C DEB in Echtzeit mit AllMySat

Download on the App Store